BREEZE-KM DEB, 41720

Orbit data source: Space-Track

BREEZE-KM DEB, 41720 is space debris in LEO originally from a launch on Tue, 31 Mar 2015 UTC launched from the Plesetsk Missile And Space Complex (PKMTR). Debris objects in space refer to the collection of defunct objects orbiting the Earth. Examples of debris include non-operational satellites, rocket bodies, and fragments generated from explosions, collisions, or faulty payload assembly.

Loading next visibility...
Identifier
41720, 2015-020H
Orbit
LEO
Country
Flag of CISCIS
Related business
Manufacturer
Khrunichev
Mission
Spacecraft
Bus & Motor
Unknown
Mass
Unknown
Launch date (UTC)
2015-03-31 (11 years ago)
Launch vehicle
Unknown
Launch site
Plesetsk Missile And Space Complex (PKMTR)
Object type
Payload
Rocket body
Debris
Shape & HBR
Unknown shape, 0.1 m
Radar Cross Section
Small (<0.1 m²)

Expand to show TLE details & history
Last TLE update: 1 day ago

TLE from 1 day ago
0 BREEZE-KM DEB
1 41720U 15020H   25296.76647239  .00000070  00000-0  18888-3 0  9993
2 41720  82.4858 314.8037 0230923  83.7434 278.9921 12.90992694488228
Epoch: 2025-10-23T18:23Z
TLE epoch observation values (Epoch: 2025-10-23T18:23:43.214Z)
Latitude
-0.00008°
Longitude
6.45262°
Altitude
1,276.662 km
Speed
7.229 km/s
True Right ascension
20h 59m 12s
True Declination
0° 00' 00"
Sunlit
Object was in daylight at epoch
Visualization orbit readout
Latitude
Unknown
Longitude
Unknown
Altitude
Unknown
Speed
Unknown
Apparent Right ascension
Unknown
Apparent Declination
Unknown
Sunlit
N/A
Visualization observer readout
Local Sidereal Time
01:10:08
Azimuth
Unknown
Elevation
Unknown
Doppler factor
Unknown
Orbital elements
Apogee altitude
1,472.055 km
Perigee altitude
1,117.681 km
Semi-major axis
7,673.005 km
Eccentricity
0.02309
Inclination
82.4858°
RAAN
314.8037°
Arg. of periapsis
83.7434°
True anomaly
276.36751°
Mean anomaly
278.9921°
Eccentric anomaly
277.68088°
Mean motion
3.2292 °/min
Orbital period
111.48 mins
BSTAR
0.00018888
Loading maneuver chart data...
Computing Atmospheric mass density...
Loading historical data...
Loading historical data...
Loading historical data...
Loading historical data...
Loading historical data...
Loading historical data...
Loading historical data...

Documentation

Showing up to 5 results
|